DW0112 Weather Reports


time (UTC)temp
F
wind
direction
speed
knots
gust
knots
rain 1hr
in
rain 24hr
in
rain mn
in
humidity
%
barometer
mb
20260504120205 61 283 8.7 14.8 0.00 0.00 0.00 75 1012.1
20260504110706 61 295 5.2 12.2 0.00 0.00 0.00 76 1011.3
20260504110206 61 312 6.1 13.0 0.00 0.00 0.00 75 1011.2
20260504081705 62 346 4.3 14.8 0.00 0.00 0.00 73 1009.2
20260504080205 62 321 5.2 13.9 0.00 0.00 0.00 72 1009.1
20260504045705 67 327 7.8 14.8 0.00 0.02 0.00 60 1008.1
20260504043206 67 322 6.1 13.9 0.00 0.03 0.00 60 1008.3
20260504041705 66 327 5.2 13.9 0.00 0.07 0.00 60 1008.3
20260504041205 67 337 6.1 13.0 0.00 0.09 0.00 59 1008.3
20260504040706 66 321 5.2 17.4 0.00 0.10 0.00 59 1008.3
20260504035206 65 317 6.1 17.4 0.00 0.10 0.00 62 1008.4
20260504034705 65 319 4.3 12.2 0.00 0.10 0.00 61 1008.4
20260504033705 65 325 5.2 19.1 0.00 0.10 0.00 60 1008.5
20260504032205 65 312 6.1 15.6 0.00 0.10 0.00 62 1008.8
20260504030204 66 327 6.1 14.8 0.00 0.10 0.00 60 1008.9
20260504025205 67 335 5.2 13.0 0.00 0.10 0.00 60 1009.2
20260504023206 67 324 6.1 13.9 0.00 0.10 0.00 60 1009.3
20260504022705 66 323 6.1 17.4 0.00 0.10 0.00 60 1009.4
20260504021205 66 326 7.0 13.9 0.00 0.10 0.00 60 1009.6
20260504020704 65 333 7.8 14.8 0.00 0.10 0.00 62 1009.7
20260504015705 66 331 7.0 13.0 0.00 0.10 0.00 62 1009.8
20260504015205 66 315 5.2 14.8 0.00 0.10 0.00 63 1009.9
20260504013205 65 333 6.1 17.4 0.00 0.12 0.00 64 1010.1
20260504011205 65 320 5.2 17.4 0.00 0.15 0.00 64 1010.1
20260504004205 65 340 5.2 12.2 0.00 0.19 0.00 66 1010.3
20260504003705 65 314 6.1 14.8 0.00 0.20 0.00 66 1010.2
20260504000704 64 318 5.2 11.3 0.00 0.28 0.00 67 1010.3
20260503235205 63 306 6.1 13.9 0.00 0.30 0.00 68 1010.4
20260503234704 63 321 5.2 10.4 0.00 0.31 0.00 68 1010.4
20260503234205 62 335 5.2 12.2 0.00 0.31 0.00 69 1010.5
20260503231704 61 332 4.3 10.4 0.00 0.31 0.00 70 1010.6
20260503231204 61 324 5.2 10.4 0.00 0.31 0.00 70 1010.6
20260503230204 60 307 2.6 8.7 0.00 0.31 0.00 72 1010.6
20260503225705 60 329 2.6 13.0 0.00 0.31 0.31 72 1010.5
20260503225205 60 326 2.6 8.7 0.00 0.31 0.31 73 1010.6
20260503223706 59 336 2.6 8.7 0.00 0.31 0.31 73 1010.6
20260503222705 59 329 2.6 7.8 0.00 0.31 0.31 75 1010.7
20260503221205 57 319 2.6 6.1 0.00 0.31 0.31 80 1010.8
20260503220204 56 328 2.6 6.1 0.00 0.31 0.31 81 1010.8
20260503215704 56 320 2.6 5.2 0.00 0.31 0.31 82 1010.7
20260503215204 55 5 2.6 5.2 0.00 0.31 0.31 82 1010.6
20260503214204 55 339 1.7 7.0 0.00 0.31 0.31 82 1010.8
20260503213705 55 328 1.7 4.3 0.00 0.31 0.31 83 1010.8
20260503213205 55 344 1.7 2.6 0.00 0.31 0.31 83 1010.7
20260503211704 55 355 1.7 4.3 0.00 0.31 0.31 84 1010.5
20260503210205 55 342 1.7 7.0 0.00 0.31 0.31 84 1010.6
20260503205204 55 336 0.9 5.2 0.00 0.31 0.31 85 1010.5
20260503204705 54 12 0.9 4.3 0.00 0.31 0.31 85 1010.5
20260503204204 54 21 1.7 4.3 0.00 0.31 0.31 85 1010.5
20260503203205 54 328 0.9 2.6 0.00 0.31 0.31 84 1010.3
20260503202705 54 347 0.9 2.6 0.00 0.31 0.31 84 1010.3
20260503202204 54 31 0.9 2.6 0.00 0.31 0.31 84 1010.3
20260503200204 55 46 0.0 1.7 0.00 0.31 0.31 84 1010.3
20260503195705 55 29 0.9 2.6 0.00 0.31 0.31 84 1010.4
20260503195205 55 22 0.0 2.6 0.00 0.31 0.31 84 1010.4
20260503194704 55 8 1.7 4.3 0.00 0.31 0.31 84 1010.4
20260503194205 55 341 1.7 5.2 0.00 0.31 0.31 85 1010.4
20260503193705 55 347 1.7 2.6 0.00 0.31 0.31 85 1010.4
20260503193204 55 341 2.6 7.8 0.00 0.31 0.31 85 1010.3
20260503192204 55 11 2.6 6.1 0.00 0.31 0.31 85 1010.4
20260503191705 55 351 1.7 5.2 0.00 0.31 0.31 85 1010.5
20260503191205 55 11 1.7 4.3 0.00 0.31 0.31 85 1010.5
20260503190704 55 22 1.7 5.2 0.00 0.31 0.31 85 1010.6
20260503190205 55 346 1.7 5.2 0.00 0.31 0.31 86 1010.7
20260503183705 55 325 1.7 4.3 0.00 0.32 0.31 86 1010.8
20260503183206 55 338 1.7 6.1 0.00 0.32 0.31 86 1010.8
20260503182205 55 2 1.7 4.3 0.00 0.32 0.31 86 1010.9
20260503174704 55 2 1.7 5.2 0.00 0.32 0.31 86 1010.9
20260503174205 55 7 2.6 4.3 0.00 0.32 0.31 86 1011.0
20260503173704 55 0 1.7 7.0 0.00 0.32 0.31 86 1011.1
20260503172705 55 335 0.9 5.2 0.00 0.32 0.31 85 1011.1
20260503160204 56 335 0.9 4.3 0.00 0.32 0.31 84 1011.6
20260503150704 57 358 1.7 6.1 0.00 0.32 0.31 84 1011.4
20260503150205 57 36 0.9 2.6 0.00 0.32 0.31 84 1011.4
20260503130706 59 332 1.7 7.8 0.00 0.32 0.31 81 1011.5
20260503130205 60 337 3.5 8.7 0.00 0.32 0.31 81 1011.6